• Join FlightAware (Why Join?)
  • Login
  • US Flag 
08:15AM EDT


 

Airport Tracker/Info


-or-


 

Live Flight TrackerFlight Track Log ✈ N229CN ✈ 25-Apr-2013 ✈ KDUC - KCRP

Flight Track Log - Related Links

Times and Time Zones

All times are in EDT time to prevent confusion due to time zone crossing. See the N229CN flight status page for this flight to view local times or setup timezone preferences in your user account.

Time Position Orientation Groundspeed Altitude Reporting Facility
EDT Latitude Longitude Course Direction KTS MPH feet Rate Location/Type
06:54PM 34.3558 -97.9694 183° South 223 257 6,900  Level Fort Worth Center
06:56PM 34.2139 -97.9786 183° South 256 295 11,800 2,520 Climbing Fort Worth Center
06:57PM 34.1406 -97.9906 188° South 261 300 14,600 3,000 Climbing Fort Worth Center
06:58PM 33.9478 -97.9802 185° South  Level FlightAware Approximate
06:58PM 34.0614 -98.0103 192° South 261 300 17,800  Level Fort Worth Center
06:59PM 33.9881 -98.0347 195° South 267 307 20,000 2,100 Climbing Fort Worth Center
07:00PM 33.9086 -98.0567 193° South 282 325 22,100 2,100 Climbing Fort Worth Center
07:01PM 33.8169 -98.0611 182° South 302 348 24,300 1,980 Climbing Fort Worth Center
07:02PM 33.7375 -98.0628 181° South 318 366 26,100 1,680 Climbing Fort Worth Center
07:03PM 33.6436 -98.0672 182° South 334 384 27,700 1,620 Climbing Fort Worth Center
07:04PM 33.5497 -98.0714 182° South 334 384 29,400 1,800 Climbing Fort Worth Center
07:05PM 33.4578 -98.0733 181° South 339 390 31,400 1,740 Climbing Fort Worth Center
07:06PM 33.3703 -98.0775 182° South 329 379 32,900 780 Climbing Fort Worth Center
07:07PM 33.2742 -98.0794 181° South 333 383 33,000  Climbing Fort Worth Center
07:08PM 33.1675 -98.0836 182° South 366 421 33,000  Level Fort Worth Center
07:09PM 33.0633 -98.0878 182° South 380 437 33,000  Level Fort Worth Center
07:10PM 32.9525 -98.0892 181° South 390 449 33,000 840 Level Fort Worth Center
07:11PM 32.8378 -98.0933 182° South 389 448 34,700 1,920 Climbing Fort Worth Center
07:12PM 32.7439 -98.0975 182° South 360 414 36,900 1,800 Climbing Fort Worth Center
07:13PM 32.6581 -98.0994 181° South 324 373 38,400 1,440 Climbing Fort Worth Center
07:14PM 32.5725 -98.1011 181° South 307 353 39,800 1,200 Climbing Fort Worth Center
07:15PM 32.4892 -98.1056 183° South 307 353 40,900 600 Climbing Fort Worth Center
07:16PM 32.3972 -98.1097 182° South 322 371 41,000  Climbing Fort Worth Center
07:17PM 32.2969 -98.1114 181° South 343 395 41,000  Level Fort Worth Center
07:18PM 32.1925 -98.1156 182° South 372 428 41,000  Level Fort Worth Center
07:19PM 32.0881 -98.1172 181° South 380 437 41,000  Level Fort Worth Center
07:22PM 31.8436 -98.1225 181° South 375 432 41,000  Level Houston Center
07:23PM 31.7356 -98.1258 182° South 381 438 41,000  Level Houston Center
07:24PM 31.6283 -98.1294 182° South 382 440 41,000  Level Houston Center
07:25PM 31.5269 -98.1336 182° South 368 423 41,000  Level Houston Center
07:26PM 31.4078 -98.1353 181° South 364 419 41,000  Level Houston Center
07:27PM 31.3033 -98.1392 182° South 370 426 41,000  Level Houston Center
07:28PM 31.1978 -98.1436 182° South 375 432 41,000  Level Houston Center
07:29PM 31.0928 -98.1431 180° South 377 434 41,000  Level Houston Center
07:30PM 30.9897 -98.1444 181° South 371 427 41,000  Level Houston Center
07:31PM 30.8878 -98.1442 180° South 365 420 41,000  Level Houston Center
07:32PM 30.7853 -98.1444 180° South 365 420 41,000  Level Houston Center
07:33PM 30.6642 -98.1450 180° South 370 426 41,000  Level Houston Center
07:34PM 30.5603 -98.1450 180° South 370 426 41,000  Level Houston Center
07:35PM 30.4575 -98.1456 180° South 367 422 41,000  Level Houston Center
07:36PM 30.3553 -98.1450 180° South 365 420 41,000  Level Houston Center
07:37PM 30.2439 -98.1453 180° South 361 415 41,000 -60 Level Houston Center
07:38PM 30.1336 -98.1458 180° South 366 421 40,900 -780 Descending Houston Center
07:39PM 30.0322 -98.1458 180° South 365 420 39,400 -1,680 Descending Houston Center
07:40PM 29.9242 -98.1475 181° South 361 415 37,500 -1,200 Descending Houston Center
07:41PM 29.8222 -98.1472 180° South 365 420 37,000 -300 Descending Houston Center
07:42PM 29.7222 -98.1475 180° South 359 413 37,000  Level Houston Center
07:43PM 29.6119 -98.1475 180° South 368 423 37,000  Level Houston Center
07:44PM 29.5061 -98.1475 180° South 379 436 37,000 -780 Level Houston Center
07:45PM 29.3892 -98.1478 180° South 387 445 35,500 -1,680 Descending Houston Center
07:46PM 29.2811 -98.1494 181° South 387 445 33,600 -1,920 Descending Houston Center
07:48PM 29.1708 -98.1506 181° South 393 452 31,500 -2,040 Descending Houston Center
07:49PM 29.0531 -98.1517 180° South 393 452 29,400 -2,040 Descending Houston Center
07:50PM 28.9417 -98.1517 180° South 398 458 27,400 -2,040 Descending Houston Center
07:51PM 28.8228 -98.1525 180° South 395 455 25,200 -2,040 Descending Houston Center
07:52PM 28.7219 -98.1533 180° South 382 440 23,200 -1,920 Descending Houston Center
07:53PM 28.6175 -98.1506 179° South 380 437 21,300 -1,980 Descending Houston Center
07:54PM 28.5153 -98.1481 179° South 369 425 19,200 -2,040 Descending Houston Center
07:55PM 28.4331 -98.0661 139° Southeast 352 405 17,300 -2,100 Descending Houston Center
07:55PM 28.4094 -98.0406 136° Southeast 350 403 16,600 -2,040 Descending Houston Center
07:56PM 28.3606 -97.9797 132° Southeast 352 405 15,100 -1,740 Descending Houston Center
07:56PM 28.3397 -97.9572 136° Southeast 348 400 14,700 -1,500 Descending Houston Center
07:57PM 28.2928 -97.9044 135° Southeast 346 398 13,600 -1,740 Descending Houston Center
07:57PM 28.2658 -97.8933 160° South 319 367 13,000 -1,980 Descending Houston Center
07:58PM 28.2206 -97.8658 152° Southeast 300 345 11,600 -1,980 Descending Houston Center
07:58PM 28.1986 -97.8550 156° South 261 300 11,000 -2,040 Descending Houston Center
07:59PM 28.1511 -97.8253 151° Southeast 276 318 9,500 -1,980 Descending Houston Center
08:00PM 28.0917 -97.7900 152° Southeast 256 295 7,500 -1,980 Descending Houston Center
08:01PM 28.0342 -97.7581 154° Southeast 239 275 5,500 -1,800 Descending Houston Center
08:02PM 27.9775 -97.7281 155° Southeast 231 266 3,800 -1,260 Descending Houston Center
08:03PM 27.9350 -97.6808 136° Southeast 222 255 3,000 -840 Descending Houston Center
08:04PM 27.8917 -97.6403 140° Southeast 158 182 2,000 -480 Descending Houston Center
08:05PM 27.8631 -97.6086 136° Southeast 146 168 2,000 -180 Level Houston Center
08:06PM 27.8367 -97.5792 135° Southeast 109 125 1,700 -480 Descending Houston Center
08:07PM 27.8175 -97.5581 136° Southeast 85 98 1,100 -600 Descending Houston Center
08:08PM 27.7986 -97.5369 135° Southeast 104 120 600 -600 Descending Houston Center
08:10PM 27.7667 -97.5000 138° Southeast  Level FlightAware Approximate
08:17PM 27.7704 -97.5012 138° Southeast  Level Estimated